Regional Weather Roundup
Issued by NWS Northern Indiana

Home | Current Version | Previous Version | Graphics & Text | Print | Product List | Glossary On
Versions: 1 2 3 4 5 6 7 8 9 10 11 12 13 14 15 16 17 18 19 20 21 22 23 24 25 26 27 28 29 30 31 32 33 34 35 36 37 38 39 40 41 42 43 44 45 46 47 48 49 50
000
ASUS43 KIWX 210200
RWRIWX

KIWX WEATHER ROUNDUP
NATIONAL WEATHER SERVICE NORTHERN INDIANA
1000 PM EDT SAT SEP 20 2014

NOTE: "FAIR" INDICATES FEW OR NO CLOUDS BELOW 12,000 FEET WITH NO
SIGNIFICANT WEATHER AND/OR OBSTRUCTIONS TO VISIBILITY.

* THESE STATIONS ARE NOT UNDER NWS QUALITY CONTROL. THEY ALSO MAY NOT
  REPORT WEATHER SUCH AS PRECIPITATION OR FOG.

INZ001>027-210300-
NORTHERN INDIANA

CITY           SKY/WX    TMP DP  RH WIND       PRES   REMARKS
GARY*          MOCLDY    72  66  83 S3        29.82S
VALPARAISO     MOCLDY    68  66  93 S8        29.83F
SOUTH BEND     PTCLDY    67  65  93 SW8       29.83S
GOSHEN         MOCLDY   N/A N/A N/A SW10      29.83F
WARSAW*        LGT RAIN  64  64 100 SW5       29.85F
ANGOLA*        CLEAR     64  63  94 SW8       29.84F
FORT WAYNE     CLOUDY    64  62  93 SW6       29.88F
PERU/GRISSOM   MOCLDY    66  66 100 S7        29.88S

$$
INZ028>050-210300-
CENTRAL INDIANA

CITY           SKY/WX    TMP DP  RH WIND       PRES   REMARKS
LAFAYETTE      LGT RAIN  67  66  97 CALM      29.86F
KOKOMO*        CLOUDY    64  63  94 S8        29.90S
MUNCIE*        CLOUDY    67  64  90 S5        29.92F
INDIANAPOLIS   CLOUDY    71  67  87 S10       29.90F

$$
MIZ043>046-050>051-056>058-064>065-071>073-077>080-210300-
SOUTHWEST LOWER MICHIGAN

CITY           SKY/WX    TMP DP  RH WIND       PRES   REMARKS
BATTLE CREEK   CLOUDY    64  61  90 S9        29.82S
BENTON HARBOR  PTCLDY    64  63  96 S5        29.79F
COLDWATER*     MOCLDY    65  64  96 SW6       29.83S
HILLSDALE*     CLOUDY    64  64 100 SW7       29.84F
HOLLAND        MOCLDY    68  65  90 SW10      29.78F FOG
GRAND RAPIDS   MOCLDY    66  65  96 SW10      29.78S
KALAMAZOO      MOCLDY    62  60  93 S8        29.81F
STURGIS*       MOCLDY    63  63 100 S6        29.82F
THREE RIVERS*  FAIR      63  62  96 SW3       29.82F

$$
OHZ001>008-015>018-024>025-210300-
NORTHWEST OHIO

CITY           SKY/WX    TMP DP  RH WIND       PRES   REMARKS
DEFIANCE       CLOUDY   N/A N/A N/A S10       29.86F
FINDLAY        RAIN      65  62  90 SW10      29.90F FOG
TOLEDO EXPRESS LGT RAIN  64  63  96 SW10      29.85S
TOLEDO METCALF LGT RAIN  66  62  87 S15       29.86F
LIMA           LGT RAIN  65  63  93 S10       29.92F

$$
AND FOR LAKE MICHIGAN COASTAL AND OPEN LAKE BUOY OBSERVATIONS

STATION/POSITION TEMP    WIND        PRES    VSBY  WAVE
                 AIR SEA DIR/SP/G                  HT/PER
                 (F)     (DEG/KT/KT) (MB)    (MI)  (FT/S)
CALUMET HARBOR    71     210/  5/  6 1008.3R
MICHIGAN CITY     68     170/ 13/ 17   N/A
SAINT JOSEPH      69     170/  7/ 12 1009.5F
SOUTH LAKE BUOY   65 63  210/ 12/ 14 1008.0R
4 MI NW BRIDGMAN  67 65  190/ 12/ 14   N/A           2/ 3
MICHIGAN CITY     68 65  210/ 10/ 12   N/A           1/ 2

$$
&&



USA.gov is the U.S. government's official web portal to all federal, state and local government web resources and services.